Simultaneous Nadir Overpasses (SNOs) Predictions

Prediction of SNOs between GOES-15 and FY3D Satellite Orbit:

Table of predicted SNOs for the next 14.0 days since TLE Epoch: 8/26/2023
Index Date Time (GOES-15) GOES-15 Lat,Lon FY3D Lat,Lon Distance(km) Time Diff (sec)
1 08/26/2023 05:07:07 -0.42, 134.61 -0.22, 135.59 111.28 80
2 08/27/2023 17:32:12 0.41, 133.07 1.05, 130.13 334.34 80
3 08/28/2023 17:11:12 0.41, 132.05 -0.15, 134.55 284.04 80
4 08/30/2023 05:36:26 -0.40, 130.45 -0.74, 129.06 159.06 80
5 08/31/2023 05:15:27 -0.40, 129.42 0.53, 133.46 460.92 80
6 09/01/2023 17:37:51 0.39, 127.87 0.36, 128.02 17.45 80
7 09/03/2023 06:03:05 -0.38, 126.26 -1.23, 122.54 424.79 80
8 09/04/2023 05:42:05 -0.39, 125.22 -0.02, 126.95 196.31 80
9 09/05/2023 18:07:10 0.38, 123.64 0.84, 121.49 244.88 80
10 09/06/2023 17:46:10 0.39, 122.61 -0.37, 125.90 375.81 80
11 09/08/2023 06:11:24 -0.37, 120.99 -0.49, 120.42 65.41 80
